GW2200 Weather Reports


time (UTC)temp
F
wind
direction
speed
knots
gust
knots
rain 1hr
in
rain 24hr
in
rain mn
in
humidity
%
barometer
mb
20260503072505 60 150 0.0 2.6 0.01 0.20 0.19 100 1009.6
20260503072003 59 151 0.0 2.6 0.01 0.20 0.19 100 1009.7
20260503071503 59 0 0.0 0.9 0.01 0.20 0.19 100 1009.6
20260503071003 59 152 0.0 2.6 0.01 0.20 0.19 100 1009.7
20260503070504 59 152 0.0 2.6 0.01 0.20 0.19 100 1009.6
20260503055025 59 0 0.0 1.7 0.00 0.19 0.18 100 1009.9
20260503054503 58 0 0.0 0.0 0.00 0.19 0.18 100 1009.8
20260503054027 58 0 0.0 0.0 0.00 0.19 0.18 100 1009.8
20260503053503 58 0 0.0 0.9 0.00 0.19 0.18 99 1009.9
20260503053024 58 141 0.0 2.6 0.00 0.19 0.18 99 1009.9
20260503052503 58 135 0.0 2.6 0.00 0.19 0.18 99 1009.9
20260503052003 58 0 0.0 0.0 0.00 0.19 0.18 99 1009.9
20260503051503 58 0 0.0 0.0 0.00 0.19 0.18 99 1009.9
20260503051003 58 0 0.0 0.0 0.00 0.19 0.18 99 1009.9
20260503045503 58 0 0.0 0.0 0.01 0.19 0.18 99 1010.2
20260503045004 58 0 0.0 0.0 0.01 0.19 0.18 99 1010.0
20260503044503 58 0 0.0 0.0 0.01 0.19 0.18 99 1010.0
20260503044003 58 0 0.0 0.0 0.02 0.19 0.18 99 1010.0
20260503043503 58 0 0.0 0.0 0.03 0.19 0.18 99 1009.9
20260503043024 58 0 0.0 0.0 0.04 0.19 0.18 99 1009.9
20260503042503 58 0 0.0 0.0 0.05 0.19 0.18 99 1010.0
20260503042003 58 0 0.0 0.0 0.05 0.19 0.18 98 1010.0
20260503041503 58 0 0.0 0.0 0.05 0.19 0.18 98 1010.0
20260503041003 58 0 0.0 0.0 0.05 0.19 0.18 98 1009.9
20260503040503 58 136 0.0 3.5 0.05 0.19 0.18 98 1010.0
20260503040004 58 138 0.0 3.5 0.05 0.19 0.18 98 1010.1
20260503035503 58 140 0.0 3.5 0.04 0.18 0.17 98 1010.2
20260503035003 58 0 0.0 0.0 0.04 0.18 0.17 98 1010.3
20260503034503 58 0 0.0 0.0 0.04 0.18 0.17 98 1010.3
20260503034003 58 0 0.0 0.0 0.03 0.17 0.17 98 1010.2
20260503033505 58 157 0.0 1.7 0.02 0.16 0.15 98 1010.4
20260503033003 58 164 0.0 3.5 0.02 0.15 0.14 98 1010.6
20260503032503 58 166 0.0 5.2 0.01 0.14 0.13 98 1010.9
20260503032003 58 172 0.9 5.2 0.02 0.14 0.13 98 1010.9
20260503031503 58 176 0.9 5.2 0.02 0.14 0.13 98 1010.9
20260503031003 58 175 0.0 5.2 0.02 0.14 0.13 98 1011.0
20260503030503 58 175 0.9 8.7 0.02 0.14 0.13 98 1011.0
20260503030004 58 176 0.9 8.7 0.02 0.14 0.13 98 1011.1
20260503025524 58 180 0.0 5.2 0.02 0.14 0.13 98 1011.0
20260503025003 58 0 0.0 0.0 0.02 0.14 0.13 98 1011.0
20260503024503 57 0 0.0 0.0 0.02 0.14 0.13 98 1010.9
20260503024003 57 0 0.0 0.0 0.02 0.14 0.13 98 1011.0
20260503023504 57 0 0.0 0.0 0.01 0.13 0.13 98 1011.0
20260503023003 57 0 0.0 0.0 0.01 0.13 0.13 98 1011.0
20260503022505 57 0 0.0 0.0 0.01 0.13 0.13 98 1011.0
20260503022003 57 0 0.0 0.0 0.00 0.13 0.12 98 1011.1
20260503021504 57 0 0.0 0.9 0.00 0.13 0.12 98 1011.2
20260503021003 57 0 0.0 0.9 0.00 0.13 0.12 98 1011.1
20260503020503 57 0 0.0 0.0 0.00 0.13 0.12 98 1011.2
20260503020003 57 0 0.0 0.0 0.00 0.13 0.12 97 1011.2
20260503015503 57 0 0.0 0.0 0.00 0.13 0.12 97 1011.0
20260503015003 57 0 0.0 0.0 0.00 0.13 0.12 97 1010.9
20260503014503 57 0 0.0 0.0 0.00 0.13 0.12 97 1010.9
20260503014003 57 0 0.0 0.0 0.00 0.13 0.12 97 1010.9
20260503013524 57 0 0.0 0.0 0.00 0.13 0.12 97 1011.0
20260503013003 57 0 0.0 0.0 0.00 0.13 0.12 97 1011.0
20260503012506 57 0 0.0 0.0 0.00 0.13 0.12 97 1011.1
20260503012503 57 0 0.0 0.0 0.00 0.13 0.12 97 1011.1
20260503012004 57 0 0.0 0.0 0.00 0.13 0.12 97 1011.1
20260503011503 57 0 0.0 0.0 0.00 0.13 0.12 97 1011.3
20260503011006 57 0 0.0 0.0 0.00 0.13 0.12 97 1011.2
20260503010503 57 165 0.0 2.6 0.00 0.13 0.12 97 1011.2
20260503010005 57 165 0.0 2.6 0.00 0.13 0.12 97 1011.4
20260503005503 57 0 0.0 0.0 0.00 0.13 0.12 97 1011.4
20260503005003 58 0 0.0 0.0 0.00 0.13 0.12 97 1011.3
20260503004505 58 0 0.0 0.0 0.00 0.13 0.12 97 1011.3
20260503004503 58 0 0.0 0.0 0.00 0.13 0.12 97 1011.3
20260503004004 58 0 0.0 0.0 0.00 0.13 0.12 97 1011.4
20260503003503 58 0 0.0 0.0 0.00 0.13 0.12 97 1011.3
20260503003004 58 0 0.0 0.0 0.00 0.13 0.12 97 1011.4
20260503002503 58 0 0.0 0.0 0.00 0.13 0.12 97 1011.4
20260503002003 58 0 0.0 0.0 0.00 0.13 0.12 97 1011.3
20260503001503 58 0 0.0 0.0 0.00 0.13 0.12 96 1011.5
20260503001024 58 0 0.0 0.0 0.00 0.13 0.12 96 1011.4
20260503000503 58 0 0.0 0.0 0.00 0.13 0.12 96 1011.5
20260503000003 58 0 0.0 0.9 0.00 0.13 0.12 96 1011.7
20260502235503 58 0 0.0 0.9 0.01 0.13 0.12 96 1011.7
20260502235024 58 0 0.0 0.0 0.02 0.13 0.12 96 1011.6
20260502234503 58 0 0.0 0.0 0.02 0.13 0.12 96 1011.6
20260502234003 58 0 0.0 1.7 0.02 0.13 0.12 96 1011.6
20260502233504 58 0 0.0 1.7 0.04 0.13 0.12 96 1011.7
20260502233003 58 0 0.0 0.0 0.06 0.13 0.12 95 1011.8
20260502232503 58 154 0.0 4.3 0.08 0.13 0.12 95 1011.9
20260502232003 58 150 0.0 4.3 0.09 0.13 0.12 95 1011.8
20260502231524 58 90 0.0 4.3 0.10 0.13 0.12 94 1011.7
20260502231003 58 26 0.0 7.0 0.12 0.13 0.12 94 1011.7
20260502230503 58 35 0.9 7.0 0.12 0.13 0.12 94 1011.8
20260502230004 58 48 0.9 6.1 0.12 0.13 0.12 93 1011.9
20260502225503 58 83 0.0 3.5 0.12 0.12 0.11 93 1012.0
20260502225024 58 75 0.0 1.7 0.11 0.11 0.10 92 1012.1
20260502224524 58 126 0.0 3.5 0.11 0.11 0.10 92 1012.5
20260502224003 58 126 0.0 3.5 0.10 0.10 0.09 92 1012.3
20260502223524 58 43 0.9 10.4 0.09 0.09 0.09 91 1012.2
20260502223003 58 44 0.9 10.4 0.06 0.06 0.06 91 1012.0
20260502222524 59 45 0.9 9.6 0.05 0.05 0.04 91 1012.7
20260502222003 59 163 0.0 6.1 0.04 0.04 0.03 91 1013.5
20260502221524 59 157 0.9 6.1 0.02 0.02 0.02 91 1013.7
20260502221003 59 153 0.9 6.1 0.01 0.01 0.00 91 1013.8
20260502220503 59 147 0.9 6.1 0.01 0.01 0.00 91 1014.0
20260502220004 59 154 1.7 9.6 0.01 0.01 0.00 90 1014.2
20260502215503 59 162 1.7 9.6 0.00 0.00 0.00 90 1014.5
20260502215024 58 167 0.9 9.6 0.00 0.00 0.00 89 1014.7
20260502214503 58 31 0.0 3.5 0.00 0.00 0.00 88 1013.1
20260502214003 58 28 0.0 3.5 0.00 0.00 0.00 88 1012.9
20260502213503 58 22 0.0 4.3 0.00 0.00 0.00 88 1012.9
20260502213024 58 34 0.0 4.3 0.00 0.00 0.00 88 1012.9
20260502212503 58 49 0.0 2.6 0.00 0.00 0.00 88 1012.9
20260502212004 58 59 0.0 1.7 0.00 0.00 0.00 88 1012.9
20260502211503 58 2 0.0 1.7 0.00 0.00 0.00 88 1012.9
20260502211003 58 19 0.0 2.6 0.00 0.00 0.00 88 1012.9
20260502210504 58 20 0.0 3.5 0.00 0.00 0.00 88 1013.0
20260502210024 58 16 0.0 3.5 0.00 0.00 0.00 88 1013.1
20260502205502 58 23 0.0 3.5 0.00 0.00 0.00 87 1013.2
20260502205003 58 30 0.9 4.3 0.00 0.00 0.00 87 1013.4
20260502204503 59 24 1.7 4.3 0.00 0.00 0.00 87 1013.3
20260502204024 59 20 1.7 5.2 0.00 0.00 0.00 86 1013.4
20260502203525 59 23 0.9 5.2 0.00 0.00 0.00 86 1013.6
20260502203003 59 18 0.0 2.6 0.00 0.00 0.00 86 1013.6
20260502202502 59 8 0.0 3.5 0.00 0.00 0.00 85 1013.7
20260502202003 59 25 0.9 4.3 0.00 0.00 0.00 85 1013.9
20260502201503 59 26 0.9 4.3 0.00 0.00 0.00 84 1013.8
20260502201003 60 33 0.0 4.3 0.00 0.00 0.00 84 1013.9
20260502200504 60 29 0.0 4.3 0.00 0.00 0.00 83 1014.0
20260502200003 60 347 0.0 2.6 0.00 0.00 0.00 81 1014.2
20260502195503 60 11 0.0 5.2 0.00 0.00 0.00 80 1014.0
20260502195003 60 25 0.9 5.2 0.00 0.00 0.00 79 1014.0
20260502194504 61 25 0.9 4.3 0.00 0.00 0.00 78 1013.9
20260502194003 61 27 0.0 2.6 0.00 0.00 0.00 77 1014.0
20260502193503 61 28 0.0 1.7 0.00 0.00 0.00 77 1013.9
20260502193004 61 0 0.0 0.0 0.00 0.00 0.00 77 1013.9
20260502192503 61 5 0.0 2.6 0.00 0.00 0.00 77 1013.9
20260502192004 61 5 0.0 2.6 0.00 0.00 0.00 77 1013.9
20260502191503 61 0 0.0 0.0 0.00 0.00 0.00 77 1014.0
20260502191024 62 0 0.0 0.0 0.00 0.00 0.00 76 1014.1
20260502190503 62 0 0.0 0.0 0.00 0.00 0.00 76 1014.1
20260502190003 62 0 0.0 0.0 0.00 0.00 0.00 76 1014.3
20260502185524 62 12 0.0 3.5 0.00 0.00 0.00 75 1014.0
20260502185024 62 21 0.9 3.5 0.00 0.00 0.00 72 1014.1
20260502184504 63 26 0.0 3.5 0.00 0.00 0.00 72 1014.1
20260502184003 63 24 0.0 3.5 0.00 0.00 0.00 73 1013.9
20260502183503 64 7 0.0 1.7 0.00 0.00 0.00 71 1014.0
20260502182524 65 0 0.0 0.0 0.00 0.00 0.00 65 1014.0
20260502182003 65 0 0.0 0.0 0.00 0.00 0.00 64 1013.9
20260502180503 66 0 0.0 0.0 0.00 0.00 0.00 64 1013.8
20260502170503 69 242 0.0 4.3 0.00 0.00 0.00 52 1014.8
20260502164024 69 237 0.9 7.8 0.00 0.00 0.00 54 1015.3
20260502163503 70 224 1.7 7.0 0.00 0.00 0.00 54 1015.3
20260502163003 70 230 1.7 7.0 0.00 0.00 0.00 54 1015.5
20260502162504 69 230 0.9 6.1 0.00 0.00 0.00 54 1015.5
20260502162003 70 232 0.9 6.1 0.00 0.00 0.00 52 1015.5
20260502161503 69 271 0.0 4.3 0.00 0.00 0.00 53 1015.5
20260502161024 69 228 0.9 8.7 0.00 0.00 0.00 53 1015.4
20260502160503 69 244 0.9 8.7 0.00 0.00 0.00 53 1015.4
20260502152003 69 239 0.9 6.1 0.00 0.00 0.00 53 1015.8
20260502151503 70 224 1.7 7.0 0.00 0.00 0.00 53 1015.9
20260502151003 71 228 1.7 7.0 0.00 0.00 0.00 53 1015.8
20260502150503 70 237 0.9 8.7 0.00 0.00 0.00 53 1015.9
20260502130504 68 233 2.6 9.6 0.00 0.00 0.00 65 1016.9
20260502123503 69 237 3.5 10.4 0.00 0.00 0.00 64 1017.3
20260502123003 68 233 3.5 10.4 0.00 0.00 0.00 73 1017.2
20260502122503 69 230 3.5 12.2 0.00 0.00 0.00 74 1017.2
20260502122004 69 230 3.5 12.2 0.00 0.00 0.00 74 1017.3
20260502121503 70 227 2.6 9.6 0.00 0.00 0.00 74 1017.2
20260502121003 70 225 1.7 7.8 0.00 0.00 0.00 74 1017.2
20260502120504 70 228 1.7 8.7 0.00 0.00 0.00 75 1017.1
20260502115503 70 224 2.6 12.2 0.00 0.00 0.00 73 1017.3
20260502115024 71 230 1.7 12.2 0.00 0.00 0.00 73 1017.2
20260502114005 70 207 2.6 9.6 0.00 0.00 0.00 75 1017.4
20260502113503 70 210 2.6 9.6 0.00 0.00 0.00 75 1017.3
20260502113003 69 219 1.7 8.7 0.00 0.00 0.00 76 1017.3
20260502112503 69 221 1.7 12.2 0.00 0.00 0.00 77 1017.6
20260502112025 69 222 2.6 12.2 0.00 0.00 0.00 77 1017.5
20260502111507 69 225 1.7 8.7 0.00 0.00 0.00 78 1017.5
20260502111003 69 227 1.7 8.7 0.00 0.00 0.00 77 1017.5
20260502110503 69 221 1.7 9.6 0.00 0.00 0.00 77 1017.6
20260502110024 69 237 2.6 9.6 0.00 0.00 0.00 77 1017.4
20260502105504 69 246 2.6 8.7 0.00 0.00 0.00 77 1017.5
20260502105003 69 239 2.6 11.3 0.00 0.00 0.00 77 1017.6
20260502104503 69 240 2.6 11.3 0.00 0.00 0.00 77 1017.6
20260502104024 69 233 3.5 10.4 0.00 0.00 0.00 76 1017.6
20260502103503 69 232 2.6 10.4 0.00 0.00 0.00 77 1017.6
20260502103003 69 236 2.6 10.4 0.00 0.00 0.00 77 1017.5
20260502102505 69 230 2.6 9.6 0.00 0.00 0.00 78 1017.6
20260502102024 69 215 1.7 10.4 0.00 0.00 0.00 78 1017.6
20260502101524 69 213 2.6 10.4 0.00 0.00 0.00 77 1017.6
20260502101003 69 217 2.6 11.3 0.00 0.00 0.00 77 1017.6
20260502100503 69 208 2.6 13.0 0.00 0.00 0.00 77 1017.6
20260502091503 65 204 1.7 7.8 0.00 0.00 0.00 86 1017.8
20260502091003 64 226 0.9 4.3 0.00 0.00 0.00 86 1017.7
20260502090504 64 227 0.0 5.2 0.00 0.00 0.00 87 1017.7